Location: ??
(34.9170°N, 135.5016°E)
Time: 22:58:47
(UTC+00:00)

RS-15 - Pass Details

Date: 25 April 2021
Orbit: 1888 x 2157 km, 64.8° (Epoch: 12 May)

Event Time Altitude Azimuth Distance (km) Brightness Sun altitude
Rises 18:43:26 0° 327° (NNW) 5,577 10.4 -17.6°
Reaches altitude 10° 18:46:52 10° 323° (NW) 4,600 9.9 -17.0°
Maximum altitude 18:58:32 58° 249° (WSW) 2,431 8.2 -14.9°
Drops below altitude 10° 19:10:24 10° 175° (S) 4,656 9.8 -12.8°
Sets 19:13:55 0° 171° (S) 5,648 10.3 -12.1°
